Location: Gazon
(48.1318°N, 1.2708°W)
Time: 01:56:56
(UTC+00:00)

CENTAUR R/B - Pass Details

Date: 18 September 2020
Orbit: 753 x 1435 km, 63.5° (Epoch: 26 October)

Event Time Altitude Azimuth Distance (km) Brightness Sun altitude
Rises 19:22:14 0° 316° (NW) 4,024 6.8 -12.6°
Reaches altitude 10° 19:24:56 10° 322° (NW) 3,153 6.0 -13.0°
Maximum altitude 19:32:30 51° 38° (NE) 1,625 3.5 -14.2°
Enters shadow 19:38:32 20° 106° (ESE) 2,782 4.2 -15.2°
